When you browse on this site, cookies collect data to enhance your experience and personalize the content and advertising you see.
Visit our Privacy Policy to learn more. By continuing to use the site, you agree to this use of cookies and data.
  • Em Portugal
  • Lista de países
  • Para 7 dias
  • Temperatura da água
  • Mapas de satélite
  • Mapa do tempo
  • Widgets de tempo
  • user-avatar
    Iniciar Sessão

    Previsão horária em Arbela

    Hoje, 26 Março, Terça-feira

    Tempo Temperatura Precipitação Vento Pressão Humidade
    00:00 +10°C° 0.6 mm 1 m/s 720 mmHg 88%
    01:00 +10°C° 0.2 mm 1 m/s 720 mmHg 87%
    02:00 +10°C° 0.2 mm 1 m/s 720 mmHg 85%
    03:00 +9°C° 0 mm 2 m/s 720 mmHg 84%
    04:00 +9°C° 0 mm 2 m/s 720 mmHg 82%
    05:00 +10°C° 0 mm 1 m/s 720 mmHg 80%
    06:00 +10°C° 0 mm 1 m/s 721 mmHg 78%
    07:00 +11°C° 0.2 mm 1 m/s 721 mmHg 75%
    08:00 +12°C° 0.2 mm 1 m/s 721 mmHg 72%
    09:00 +13°C° 0.2 mm 1 m/s 721 mmHg 68%
    10:00 +12°C° 0.6 mm 1 m/s 720 mmHg 73%
    11:00 +12°C° 0.6 mm 1 m/s 720 mmHg 78%
    12:00 +12°C° 0.6 mm 2 m/s 720 mmHg 83%
    13:00 +12°C° 0.1 mm 2 m/s 720 mmHg 82%
    14:00 +12°C° 0.1 mm 2 m/s 720 mmHg 82%
    15:00 +13°C° 0.1 mm 2 m/s 721 mmHg 81%
    16:00 +12°C° 0.4 mm 1 m/s 721 mmHg 84%
    17:00 +12°C° 0.4 mm 1 m/s 721 mmHg 88%
    18:00 +10°C° 0.4 mm 0 m/s 721 mmHg 91%
    19:00 +11°C° 0.3 mm 1 m/s 722 mmHg 93%
    20:00 +11°C° 0.3 mm 1 m/s 723 mmHg 94%
    21:00 +10°C° 0.3 mm 1 m/s 723 mmHg 95%
    22:00 +10°C° 0.1 mm 1 m/s 724 mmHg 95%
    23:00 +10°C° 0.1 mm 1 m/s 724 mmHg 95%

    Amanhã, 27 Março, Quarta-feira

    Tempo Temperatura Precipitação Vento Pressão Humidade
    00:00 +10°C° 0.1 mm 1 m/s 725 mmHg 94%
    01:00 +10°C° 0.1 mm 1 m/s 725 mmHg 94%
    02:00 +10°C° 0.1 mm 1 m/s 725 mmHg 94%
    03:00 +9°C° 0.1 mm 1 m/s 725 mmHg 94%
    04:00 +9°C° 0 mm 1 m/s 726 mmHg 93%
    05:00 +9°C° 0 mm 2 m/s 726 mmHg 92%
    06:00 +9°C° 0 mm 2 m/s 726 mmHg 91%
    07:00 +10°C° 0 mm 2 m/s 726 mmHg 85%
    08:00 +10°C° 0 mm 3 m/s 727 mmHg 80%
    09:00 +11°C° 0 mm 3 m/s 727 mmHg 75%
    10:00 +12°C° 0 mm 3 m/s 727 mmHg 71%
    11:00 +13°C° 0 mm 3 m/s 727 mmHg 68%
    12:00 +14°C° 0 mm 3 m/s 727 mmHg 64%
    13:00 +15°C° 0.1 mm 2 m/s 727 mmHg 62%
    14:00 +15°C° 0.1 mm 2 m/s 727 mmHg 61%
    15:00 +15°C° 0.1 mm 2 m/s 726 mmHg 59%
    16:00 +15°C° 0.4 mm 2 m/s 726 mmHg 64%
    17:00 +14°C° 0.4 mm 2 m/s 726 mmHg 70%
    18:00 +14°C° 0.4 mm 2 m/s 726 mmHg 75%
    19:00 +13°C° 0.5 mm 2 m/s 727 mmHg 78%
    20:00 +11°C° 0.5 mm 3 m/s 727 mmHg 81%
    21:00 +11°C° 0.5 mm 3 m/s 727 mmHg 84%
    22:00 +11°C° 0.4 mm 3 m/s 727 mmHg 84%
    23:00 +11°C° 0.4 mm 3 m/s 727 mmHg 84%

    Depois de amanhã, 28 Março, Quinta-feira

    Tempo Temperatura Precipitação Vento Pressão Humidade
    00:00 +10°C° 0.4 mm 2 m/s 727 mmHg 84%
    01:00 +10°C° 0.8 mm 2 m/s 727 mmHg 85%
    02:00 +10°C° 0.8 mm 2 m/s 727 mmHg 86%
    03:00 +10°C° 0.8 mm 3 m/s 727 mmHg 87%
    04:00 +10°C° 0.2 mm 2 m/s 727 mmHg 86%
    05:00 +9°C° 0.2 mm 2 m/s 727 mmHg 85%
    06:00 +9°C° 0.2 mm 2 m/s 727 mmHg 85%
    07:00 +12°C° 0.1 mm 2 m/s 727 mmHg 80%
    08:00 +13°C° 0.1 mm 2 m/s 727 mmHg 75%
    09:00 +14°C° 0.1 mm 2 m/s 728 mmHg 70%
    10:00 +15°C° 0.2 mm 1 m/s 727 mmHg 67%
    11:00 +15°C° 0.2 mm 1 m/s 727 mmHg 63%
    12:00 +16°C° 0.2 mm 1 m/s 727 mmHg 60%
    13:00 +18°C° 0.4 mm 1 m/s 727 mmHg 58%
    14:00 +18°C° 0.4 mm 1 m/s 726 mmHg 57%
    15:00 +17°C° 0.4 mm 2 m/s 726 mmHg 55%
    16:00 +18°C° 0.8 mm 1 m/s 726 mmHg 62%
    17:00 +16°C° 0.8 mm 1 m/s 726 mmHg 69%
    18:00 +15°C° 0.8 mm 1 m/s 726 mmHg 75%
    19:00 +14°C° 0.5 mm 1 m/s 727 mmHg 77%
    20:00 +13°C° 0.5 mm 1 m/s 727 mmHg 78%
    21:00 +12°C° 0.5 mm 1 m/s 727 mmHg 80%
    22:00 +12°C° 0.1 mm 1 m/s 727 mmHg 79%
    23:00 +12°C° 0.1 mm 2 m/s 727 mmHg 79%

    29 Março, Sexta-feira

    Tempo Temperatura Precipitação Vento Pressão Humidade
    00:00 +12°C° 0.1 mm 2 m/s 727 mmHg 79%
    01:00 +12°C° 0.2 mm 2 m/s 727 mmHg 79%
    02:00 +12°C° 0.2 mm 2 m/s 727 mmHg 80%
    03:00 +12°C° 0.2 mm 2 m/s 727 mmHg 81%
    04:00 +10°C° 0.1 mm 2 m/s 727 mmHg 80%
    05:00 +10°C° 0.1 mm 3 m/s 727 mmHg 80%
    06:00 +10°C° 0.1 mm 3 m/s 727 mmHg 80%
    07:00 +12°C° 0 mm 3 m/s 727 mmHg 75%
    08:00 +13°C° 0 mm 3 m/s 727 mmHg 69%
    09:00 +14°C° 0 mm 4 m/s 728 mmHg 64%
    10:00 +15°C° 0.1 mm 4 m/s 727 mmHg 60%
    11:00 +17°C° 0.1 mm 5 m/s 727 mmHg 55%
    12:00 +19°C° 0.1 mm 5 m/s 727 mmHg 51%
    13:00 +19°C° 0.4 mm 5 m/s 726 mmHg 49%
    14:00 +19°C° 0.4 mm 4 m/s 726 mmHg 48%
    15:00 +20°C° 0.4 mm 4 m/s 725 mmHg 46%
    16:00 +18°C° 0.4 mm 3 m/s 725 mmHg 54%
    17:00 +17°C° 0.4 mm 3 m/s 725 mmHg 63%
    18:00 +15°C° 0.4 mm 2 m/s 725 mmHg 71%
    19:00 +14°C° 0.3 mm 3 m/s 725 mmHg 73%
    20:00 +13°C° 0.3 mm 4 m/s 725 mmHg 76%
    21:00 +12°C° 0.3 mm 5 m/s 725 mmHg 78%
    22:00 +12°C° 0.1 mm 5 m/s 725 mmHg 78%
    23:00 +12°C° 0.1 mm 5 m/s 725 mmHg 77%

    30 Março, Sábado

    Tempo Temperatura Precipitação Vento Pressão Humidade
    00:00 +12°C° 0.1 mm 5 m/s 725 mmHg 76%
    01:00 +12°C° 0 mm 4 m/s 725 mmHg 76%
    02:00 +12°C° 0 mm 4 m/s 724 mmHg 77%
    03:00 +12°C° 0 mm 4 m/s 724 mmHg 77%
    04:00 +12°C° 0.1 mm 4 m/s 724 mmHg 77%
    05:00 +11°C° 0.1 mm 4 m/s 724 mmHg 77%
    06:00 +10°C° 0.1 mm 5 m/s 724 mmHg 77%
    07:00 +12°C° 0.1 mm 5 m/s 724 mmHg 74%
    08:00 +13°C° 0.1 mm 5 m/s 724 mmHg 71%
    09:00 +14°C° 0.1 mm 6 m/s 724 mmHg 68%
    10:00 +16°C° 0 mm 6 m/s 724 mmHg 60%
    11:00 +19°C° 0 mm 6 m/s 724 mmHg 52%
    12:00 +21°C° 0 mm 6 m/s 723 mmHg 44%
    13:00 +21°C° 0.2 mm 5 m/s 723 mmHg 47%
    14:00 +20°C° 0.2 mm 4 m/s 723 mmHg 50%
    15:00 +20°C° 0.2 mm 3 m/s 722 mmHg 53%
    16:00 +19°C° 0.7 mm 4 m/s 722 mmHg 60%
    17:00 +16°C° 0.7 mm 5 m/s 722 mmHg 67%
    18:00 +15°C° 0.7 mm 6 m/s 723 mmHg 74%
    19:00 +15°C° 0.2 mm 6 m/s 723 mmHg 75%
    20:00 +14°C° 0.2 mm 5 m/s 723 mmHg 76%
    21:00 +14°C° 0.2 mm 5 m/s 723 mmHg 78%
    22:00 +14°C° 0.3 mm 6 m/s 723 mmHg 77%
    23:00 +14°C° 0.3 mm 6 m/s 722 mmHg 76%

    31 Março, Domingo

    Tempo Temperatura Precipitação Vento Pressão Humidade
    00:00 +13°C° 0.3 mm 6 m/s 722 mmHg 76%
    01:00 +13°C° 0.3 mm 5 m/s 721 mmHg 77%
    02:00 +13°C° 0.3 mm 5 m/s 721 mmHg 79%
    03:00 +13°C° 0.3 mm 5 m/s 720 mmHg 81%
    04:00 +13°C° 0.4 mm 4 m/s 720 mmHg 81%
    05:00 +13°C° 0.4 mm 4 m/s 720 mmHg 81%
    06:00 +13°C° 0.4 mm 4 m/s 720 mmHg 82%
    07:00 +13°C° 1.1 mm 4 m/s 720 mmHg 81%
    08:00 +14°C° 1.1 mm 5 m/s 720 mmHg 80%
    09:00 +14°C° 1.1 mm 6 m/s 720 mmHg 80%
    10:00 +14°C° 1.9 mm 5 m/s 720 mmHg 81%
    11:00 +15°C° 1.9 mm 5 m/s 719 mmHg 81%
    12:00 +15°C° 1.9 mm 4 m/s 719 mmHg 82%
    13:00 +14°C° 1.8 mm 4 m/s 718 mmHg 84%
    14:00 +14°C° 1.8 mm 5 m/s 718 mmHg 85%
    15:00 +14°C° 1.8 mm 5 m/s 717 mmHg 87%
    16:00 +14°C° 2.3 mm 5 m/s 717 mmHg 85%
    17:00 +15°C° 2.3 mm 6 m/s 717 mmHg 83%
    18:00 +15°C° 2.3 mm 7 m/s 717 mmHg 82%
    19:00 +15°C° 3.5 mm 6 m/s 718 mmHg 84%
    20:00 +14°C° 3.5 mm 5 m/s 718 mmHg 86%
    21:00 +14°C° 3.5 mm 5 m/s 719 mmHg 88%
    22:00 +13°C° 0.9 mm 4 m/s 719 mmHg 87%
    23:00 +13°C° 0.9 mm 3 m/s 719 mmHg 86%
    Mostrar mais